sat.trackr.live / text

‹ back to catalog

STARLINK-6034

NORAD 56324 · 2023-058H

PAYLOAD ACTIVE UNKNOWN

§ Identity

Operator
Country
US
Launch date
2023-04-27
Launch site
AFWTR
Launch vehicle
Mass (kg)
RCS (m²)

Purposes: comms

External: N2YO · Heavens-Above · Gunter

§ Orbital elements

Epoch: 2026-09-20T23:21:12.237120Z

Period
93.91 min
Inclination
97.2844°
Eccentricity
0.0001666
Mean motion
15.33436416 rev/d
Perigee alt
464.4 km
Apogee alt
466.7 km
Semi-major
6,843.7 km
B*
1.5916e-5
RAAN
260.6620°
Arg perigee
88.4484°
Mean anomaly
271.6950°
Rev number
18,735

§ Raw data

STARLINK-60341 56324U 23058H   26263.97305830  .00000439  00000+0  15916-4 0  99932 56324  97.2844 260.6620 0001666  88.4484 271.6950 15.33436416187353

JSON: /api/v1/satellites/56324 · /tle

For live sub-satellite position, see the globe view (requires WebGL).

§ Visibility from observer

Set your observer location to see the next 7 days of passes ≥ 10°. The values pass through the URL so the page stays shareable.

No JS? Fill the form by hand. The geolocation button needs JavaScript.